Regional Weather Roundup
Issued by NWS Albany, NY

Home | Current Version | Previous Version | Text Only | Print | Product List | Glossary On
Versions: 1 2 3 4 5 6 7 8 9 10 11 12 13 14 15 16 17 18 19 20 21 22 23 24 25 26 27 28 29 30 31 32 33 34 35 36 37 38 39 40 41 42 43 44 45 46 47 48 49 50
000
ASUS41 KALY 290610
RWRALY

NEW YORK STATE HOURLY WEATHER ROUNDUP
NATIONAL WEATHER SERVICE ALBANY NY
200 AM EDT SAT AUG 29 2015

NOTE: "FAIR" INDICATES FEW OR NO CLOUDS BELOW 12,000 FEET WITH NO
SIGNIFICANT WEATHER AND/OR NO OBSTRUCTIONS TO VISIBILITY.

NYZ032-033-038>043-046>054-057>066-NYZ062>081-290700-
EAST


CITY           SKY/WX    TMP DP  RH WIND       PRES   REMARKS
ALBANY         MOCLDY    58  53  84 CALM      30.19F
GLENS FALLS    FAIR      55  51  86 CALM      30.19S
POUGHKEEPSIE   FAIR      58  55  90 CALM      30.19S
MONTGOMERY     FAIR      55  53  93 CALM      30.20S
WHITE PLAINS   FAIR      61  56  83 NW5       30.18F
ISLIP          FAIR      63  57  81 CALM      30.17F
NEW YORK CITY  FAIR      72  57  59 CALM      30.18F
CENTRAL PARK   FAIR      70  52  52 CALM      30.21F
$$

NYZ005>009-017-018-044>046-055-056-290700-
CENTRAL


CITY           SKY/WX    TMP DP  RH WIND       PRES   REMARKS
FULTON         FAIR      54  52  93 CALM      30.18F
SYRACUSE       FAIR      56  55  97 SE3       30.18F
ROME           FAIR      54  53  97 CALM      30.21S
ELMIRA         FAIR      51  51 100 CALM      30.20F FOG
BINGHAMTON     FAIR      58  53  84 S3        30.22F
MONTICELLO     FAIR      52  50  93 N5        30.24F
$$

NYZ026>034-041>043-290700-
NORTH


CITY           SKY/WX    TMP DP  RH WIND       PRES   REMARKS
WATERTOWN      FAIR      56  51  84 CALM      30.17F
FORT DRUM      NOT AVBL
MASSENA        FAIR      55  51  86 S6        30.16F
SARANAC LAKE   FAIR      44  42  93 CALM      30.19F
PLATTSBURGH    FAIR      54  53  97 CALM      30.16R
$$

NYZ001>004-010>016-019>021-290700-
WEST


CITY           SKY/WX    TMP DP  RH WIND       PRES   REMARKS
NIAGARA FALLS  FAIR      59  55  87 SE3       30.16S
BUFFALO        MOCLDY    59  55  87 S5        30.17S
DUNKIRK        FAIR      56  53  90 CALM      30.17S
JAMESTOWN      FAIR      55  54  94 S3        30.21S VSB 1
WELLSVILLE     FAIR      56  53  90 CALM      30.24S
ROCHESTER      MOCLDY    58  56  93 SW3       30.18S
PENN YAN       FAIR      58  56  93 SW5       30.20S
$$

             KEY
       WCI = WIND CHILL INDEX
       VSB = VISIBILITY
       HX  = HEAT INDEX
$$



USA.gov is the U.S. government's official web portal to all federal, state and local government web resources and services.